Flag for Canada Weather past 2 weeks in Yellowknife, Northwest Territories, Canada

Now
57 °F

Passing clouds.


Feels Like: 55 °F
Forecast: 54 / 77 °F
Wind: 8 mph from South

Location: Yellowknife

Current Time: Jul 22, 2014 at 5:45:15 AM

Latest Report: Jul 22, 2014 at 5:00 AM


Visibility: 1 mi

Pressure: 30.02 "Hg

Humidity: 67%

Dew point: 46 °F

Location of YellowknifeLocation

Historic Weather in Yellowknife — Graph

°F

Yellowknife temperature yesterday

Maximum temperature yesterday: 70 °F (at 12:00 PM)
Minimum temperature yesterday: 52 °F (at 1:00 AM)
Average temperature yesterday: 63 °F

Past Weeks' High & Low Weather Summary

 TemperatureHumidityPressure
High79 °F (Jul 15, 5:00 PM)94% (Jul 7, 5:00 AM)30.23 "Hg (Jul 7, 5:00 AM)
Low39 °F (Jul 18, 4:00 AM)23% (Jul 7, 4:00 PM)29.58 "Hg (Jul 19, 5:00 AM)
Average62 °F55%29.85 "Hg
* Reported Jul 7 4:00 AM — Jul 22 4:00 AM, Yellowknife, Weather by CustomWeather, © 2014

Note: Actual official high and low records may vary slightly from our data, if they occured in-between our weather recording intervals... More about our weather records

Advertising

Yellowknife weather history for previous 24 hours

 ConditionsComfort  
Time TempWeatherWind HumidityBarometerVisibility
4:00 AM
Jul 22
59 °FMostly cloudy.5 mph55%30.01 "Hg2 mi
3:00 AM59 °FMostly cloudy.6 mph55%30.00 "Hg1 mi
2:00 AM59 °FMostly cloudy.6 mph55%29.99 "Hg1 mi
1:00 AM63 °FMostly cloudy.6 mph49%29.98 "Hg2 mi
12:00 AM63 °FOvercast.6 mph49%29.97 "Hg8 mi
11:00 PM
Jul 21
64 °FPartly sunny.5 mph43%29.96 "Hg8 mi
10:00 PM66 °FBroken clouds.2 mph37%29.96 "Hg8 mi
9:00 PM66 °FBroken clouds.3 mph37%29.95 "Hg8 mi
8:00 PM68 °FScattered clouds.6 mph35%29.94 "Hg10 mi
7:00 PM70 °FBroken clouds.6 mph31%29.94 "Hg10 mi
6:00 PM70 °FBroken clouds.5 mph31%29.93 "Hg6 mi
5:00 PM70 °FBroken clouds.6 mph31%29.93 "Hg5 mi
4:00 PM70 °FPartly sunny.7 mph31%29.92 "Hg3 mi
3:00 PM70 °FPartly sunny.8 mph33%29.92 "Hg2 mi
2:00 PM70 °FPartly sunny.9 mph33%29.91 "Hg3 mi
1:00 PM70 °FPartly sunny.10 mph33%29.90 "Hg3 mi
12:00 PM70 °FPartly sunny.6 mph35%29.89 "Hg3 mi
11:00 AM66 °FPartly sunny.7 mph40%29.89 "Hg1 mi
10:00 AM64 °FPartly sunny.8 mph43%29.87 "Hg3 mi
9:00 AM63 °FPartly sunny.5 mph49%29.86 "Hg5 mi
8:00 AM59 °FPartly sunny.3 mph59%29.84 "Hg10 mi
7:00 AM55 °FPartly sunny.7 mph63%29.82 "Hg15 mi
6:00 AM54 °FPartly sunny.3 mph72%29.81 "Hg15 mi
5:00 AM52 °FPassing clouds.3 mph82%29.79 "Hg10 mi
Weather by CustomWeather, © 2014

See weather overviewHow to use our weather pages